Location: Unspecified
(0.0000°N, 0.0000°E)
Time: 09:16:52
(UTC+00:00)

Vanguard 3 - Visible Passes

Search period start: 29 March 2017 00:00
Search period end: 08 April 2017 00:00
Orbit: 508 x 3265 km, 33.3° (Epoch: 27 March)

Date Brightness Start Highest point End Pass type
(mag) Time Alt. Az. Time Alt. Az. Time Alt. Az.
29 Mar 9.0 03:44:42 25° SSE 03:44:42 25° SSE 03:47:58 10° SE visible
30 Mar 8.9 04:40:12 18° SSW 04:40:55 18° SSW 04:45:49 10° SSE visible
30 Mar 10.8 18:21:20 10° WNW 18:28:06 14° NNW 18:33:33 10° N visible
31 Mar 9.7 03:31:03 13° SSE 03:31:03 13° SSE 03:31:48 10° SSE visible
01 Apr 9.4 04:26:30 12° SSW 04:26:30 12° SSW 04:28:20 10° S visible
